When you browse on this site, cookies collect data to enhance your experience and personalize the content and advertising you see.
Visit our Privacy Policy to learn more. By continuing to use the site, you agree to this use of cookies and data.
  • en France
  • Liste des pays
  • À 7 jours
  • Température de l'eau
  • Carte météo
  • Widgets météo
  • user-avatar
    Se connecter

    Météo par heure à Buenos Aires

    Ce jour, 19 Février, Mercredi

    Heure Température Précipitation Vent Pression Humidité
    00:00 +24°C° 0 mm 2 m/s 757 mmHg 55%
    01:00 +24°C° 0 mm 1 m/s 757 mmHg 56%
    02:00 +23°C° 0 mm 2 m/s 757 mmHg 53%
    03:00 +23°C° 0 mm 1 m/s 757 mmHg 54%
    04:00 +23°C° 0 mm 1 m/s 757 mmHg 54%
    05:00 +22°C° 0 mm 1 m/s 757 mmHg 55%
    06:00 +23°C° 0 mm 1 m/s 757 mmHg 51%
    07:00 +24°C° 0 mm 2 m/s 757 mmHg 47%
    08:00 +25°C° 0 mm 3 m/s 757 mmHg 44%
    09:00 +27°C° 0 mm 3 m/s 757 mmHg 37%
    10:00 +28°C° 0 mm 3 m/s 757 mmHg 31%
    11:00 +30°C° 0 mm 3 m/s 756 mmHg 24%
    12:00 +31°C° 0 mm 3 m/s 756 mmHg 21%
    13:00 +33°C° 0 mm 3 m/s 756 mmHg 19%
    14:00 +34°C° 0 mm 3 m/s 755 mmHg 16%
    15:00 +34°C° 0 mm 3 m/s 755 mmHg 16%
    16:00 +34°C° 0 mm 2 m/s 754 mmHg 17%
    17:00 +34°C° 0 mm 2 m/s 754 mmHg 17%
    18:00 +32°C° 0 mm 2 m/s 754 mmHg 19%
    19:00 +31°C° 0 mm 3 m/s 755 mmHg 21%
    20:00 +29°C° 0 mm 3 m/s 755 mmHg 24%
    21:00 +27°C° 0 mm 5 m/s 756 mmHg 30%
    22:00 +24°C° 0 mm 6 m/s 756 mmHg 37%
    23:00 +22°C° 0 mm 7 m/s 757 mmHg 43%

    Demain, 20 Février, Jeudi

    Heure Température Précipitation Vent Pression Humidité
    00:00 +21°C° 0 mm 7 m/s 758 mmHg 43%
    01:00 +21°C° 0 mm 8 m/s 759 mmHg 43%
    02:00 +20°C° 0 mm 8 m/s 759 mmHg 42%
    03:00 +18°C° 0 mm 8 m/s 760 mmHg 44%
    04:00 +17°C° 0 mm 7 m/s 760 mmHg 46%
    05:00 +17°C° 0 mm 7 m/s 761 mmHg 48%
    06:00 +17°C° 0 mm 7 m/s 761 mmHg 44%
    07:00 +18°C° 0 mm 7 m/s 762 mmHg 40%
    08:00 +18°C° 0 mm 7 m/s 763 mmHg 37%
    09:00 +20°C° 0 mm 7 m/s 763 mmHg 33%
    10:00 +21°C° 0 mm 6 m/s 763 mmHg 30%
    11:00 +23°C° 0 mm 6 m/s 763 mmHg 26%
    12:00 +24°C° 0 mm 6 m/s 763 mmHg 25%
    13:00 +26°C° 0 mm 6 m/s 762 mmHg 24%
    14:00 +26°C° 0 mm 6 m/s 762 mmHg 23%
    15:00 +26°C° 0 mm 6 m/s 762 mmHg 24%
    16:00 +26°C° 0 mm 6 m/s 761 mmHg 24%
    17:00 +26°C° 0 mm 6 m/s 761 mmHg 25%
    18:00 +24°C° 0 mm 6 m/s 762 mmHg 27%
    19:00 +23°C° 0 mm 6 m/s 762 mmHg 29%
    20:00 +22°C° 0 mm 6 m/s 762 mmHg 31%
    21:00 +21°C° 0 mm 6 m/s 763 mmHg 33%
    22:00 +20°C° 0 mm 7 m/s 763 mmHg 36%
    23:00 +18°C° 0 mm 7 m/s 763 mmHg 39%

    Après-demain, 21 Février, Vendredi

    Heure Température Précipitation Vent Pression Humidité
    00:00 +19°C° 0 mm 6 m/s 764 mmHg 42%
    01:00 +17°C° 0 mm 6 m/s 764 mmHg 45%
    02:00 +16°C° 0 mm 6 m/s 764 mmHg 48%
    09:00 +19°C° 0 mm 6 m/s 765 mmHg 49%
    10:00 +20°C° 0 mm 6 m/s 765 mmHg 43%
    11:00 +22°C° 0 mm 6 m/s 765 mmHg 37%
    12:00 +23°C° 0 mm 6 m/s 765 mmHg 34%
    13:00 +24°C° 0 mm 6 m/s 764 mmHg 31%
    14:00 +26°C° 0 mm 6 m/s 764 mmHg 28%
    15:00 +24°C° 0 mm 6 m/s 764 mmHg 29%
    16:00 +24°C° 0 mm 6 m/s 764 mmHg 29%
    17:00 +24°C° 0 mm 6 m/s 763 mmHg 29%
    18:00 +23°C° 0 mm 6 m/s 764 mmHg 31%
    19:00 +22°C° 0 mm 6 m/s 764 mmHg 34%
    20:00 +21°C° 0 mm 7 m/s 765 mmHg 36%
    21:00 +18°C° 0 mm 7 m/s 765 mmHg 40%
    22:00 +17°C° 0 mm 7 m/s 765 mmHg 44%
    23:00 +16°C° 0 mm 7 m/s 766 mmHg 48%

    22 Février, Samedi

    Heure Température Précipitation Vent Pression Humidité
    00:00 +15°C° 0 mm 6 m/s 766 mmHg 51%
    01:00 +14°C° 0 mm 6 m/s 766 mmHg 53%
    02:00 +14°C° 0 mm 6 m/s 766 mmHg 55%
    03:00 +13°C° 0 mm 5 m/s 766 mmHg 57%
    04:00 +13°C° 0 mm 5 m/s 766 mmHg 59%
    05:00 +13°C° 0 mm 5 m/s 767 mmHg 60%
    06:00 +14°C° 0 mm 5 m/s 767 mmHg 59%
    07:00 +14°C° 0 mm 4 m/s 767 mmHg 58%
    08:00 +15°C° 0 mm 4 m/s 767 mmHg 56%
    09:00 +18°C° 0 mm 4 m/s 767 mmHg 49%
    10:00 +20°C° 0 mm 3 m/s 767 mmHg 41%
    11:00 +22°C° 0 mm 3 m/s 767 mmHg 34%
    12:00 +24°C° 0 mm 3 m/s 766 mmHg 31%
    13:00 +25°C° 0 mm 3 m/s 765 mmHg 28%
    14:00 +27°C° 0 mm 3 m/s 765 mmHg 24%
    15:00 +26°C° 0 mm 4 m/s 764 mmHg 30%
    16:00 +25°C° 0 mm 4 m/s 764 mmHg 35%
    17:00 +23°C° 0 mm 5 m/s 764 mmHg 40%
    18:00 +22°C° 0 mm 5 m/s 764 mmHg 45%
    19:00 +21°C° 0 mm 5 m/s 764 mmHg 51%
    20:00 +20°C° 0 mm 5 m/s 764 mmHg 57%
    21:00 +20°C° 0 mm 5 m/s 764 mmHg 57%
    22:00 +20°C° 0 mm 5 m/s 764 mmHg 58%
    23:00 +20°C° 0 mm 4 m/s 764 mmHg 59%

    23 Février, Dimanche

    Heure Température Précipitation Vent Pression Humidité
    00:00 +20°C° 0 mm 4 m/s 764 mmHg 61%
    01:00 +19°C° 0 mm 4 m/s 764 mmHg 64%
    02:00 +19°C° 0 mm 4 m/s 763 mmHg 66%
    03:00 +19°C° 0 mm 4 m/s 763 mmHg 67%
    04:00 +19°C° 0 mm 4 m/s 763 mmHg 68%
    05:00 +19°C° 0 mm 4 m/s 763 mmHg 69%
    06:00 +19°C° 0 mm 4 m/s 763 mmHg 66%
    07:00 +20°C° 0 mm 4 m/s 763 mmHg 63%
    08:00 +21°C° 0 mm 4 m/s 763 mmHg 60%
    09:00 +22°C° 0 mm 4 m/s 762 mmHg 54%
    10:00 +25°C° 0 mm 3 m/s 762 mmHg 47%
    11:00 +26°C° 0 mm 3 m/s 762 mmHg 41%
    12:00 +27°C° 0 mm 3 m/s 761 mmHg 37%
    13:00 +28°C° 0 mm 2 m/s 760 mmHg 34%
    14:00 +30°C° 0 mm 2 m/s 759 mmHg 30%
    15:00 +29°C° 0 mm 3 m/s 759 mmHg 30%
    16:00 +29°C° 0 mm 3 m/s 758 mmHg 31%
    17:00 +29°C° 0 mm 4 m/s 757 mmHg 32%
    18:00 +28°C° 0 mm 4 m/s 757 mmHg 39%
    19:00 +26°C° 0 mm 5 m/s 757 mmHg 47%
    20:00 +24°C° 0 mm 6 m/s 757 mmHg 55%
    21:00 +25°C° 0 mm 5 m/s 757 mmHg 58%
    22:00 +23°C° 0 mm 5 m/s 757 mmHg 62%
    23:00 +23°C° 0 mm 5 m/s 757 mmHg 66%

    24 Février, Lundi

    Heure Température Précipitation Vent Pression Humidité
    00:00 +23°C° 0 mm 5 m/s 757 mmHg 62%
    01:00 +22°C° 0 mm 5 m/s 756 mmHg 58%
    02:00 +22°C° 0 mm 5 m/s 756 mmHg 53%
    03:00 +22°C° 0 mm 5 m/s 756 mmHg 54%
    04:00 +22°C° 0 mm 6 m/s 756 mmHg 55%
    05:00 +21°C° 0 mm 6 m/s 756 mmHg 56%
    06:00 +22°C° 0 mm 6 m/s 756 mmHg 53%
    07:00 +23°C° 0 mm 6 m/s 756 mmHg 51%
    08:00 +23°C° 0 mm 6 m/s 756 mmHg 48%
    09:00 +26°C° 0 mm 5 m/s 755 mmHg 41%
    10:00 +28°C° 0 mm 5 m/s 755 mmHg 35%
    11:00 +32°C° 0 mm 5 m/s 755 mmHg 29%
    12:00 +33°C° 0 mm 5 m/s 754 mmHg 26%
    13:00 +34°C° 0 mm 5 m/s 753 mmHg 24%
    14:00 +35°C° 0 mm 5 m/s 752 mmHg 21%
    15:00 +35°C° 0 mm 4 m/s 751 mmHg 22%
    16:00 +34°C° 0 mm 4 m/s 751 mmHg 22%
    17:00 +34°C° 0 mm 4 m/s 750 mmHg 23%
    18:00 +33°C° 0 mm 5 m/s 750 mmHg 24%
    19:00 +33°C° 0 mm 5 m/s 750 mmHg 25%
    20:00 +32°C° 0 mm 6 m/s 751 mmHg 26%
    21:00 +30°C° 0 mm 5 m/s 751 mmHg 27%
    22:00 +29°C° 0 mm 5 m/s 751 mmHg 28%
    23:00 +28°C° 0 mm 4 m/s 751 mmHg 29%
    Voir plus